This is the latest recevied weather packets stored in our database for station/object N1ORT. If no packets are shown the sender has not sent any weather packets the latest 10 day(s).
| Time | Temp. | Humidity | Pressure | Rain* | Wind** | Luminosity | Snow |
|---|---|---|---|---|---|---|---|
| 1788589628 | 17.78° C | 89% | 1007.3 hPa | 0 mm | - | 0 W/m² | - |
| 1788589328 | 17.78° C | 88% | 1007.4 hPa | 0 mm | - | 0 W/m² | - |
| 1788589021 | 17.78° C | 89% | 1007.5 hPa | 0 mm | - | 0 W/m² | - |
| 1788588715 | 17.78° C | 89% | 1007.4 hPa | 0 mm | - | 0 W/m² | - |
| 1788588411 | 17.78° C | 88% | 1007.6 hPa | 0 mm | - | 0 W/m² | - |
| 1788588108 | 17.78° C | 87% | 1007.3 hPa | 0 mm | - | 0 W/m² | - |
| 1788587806 | 18.33° C | 87% | 1007.5 hPa | 0 mm | - | 0 W/m² | - |
| 1788587501 | 17.78° C | 87% | 1007.5 hPa | 0 mm | - | 0 W/m² | - |
| 1788587197 | 18.33° C | 87% | 1007.7 hPa | 0 mm | - | 0 W/m² | - |
| 1788586888 | 18.33° C | 87% | 1007.7 hPa | 0 mm | - | 0 W/m² | - |
| 1788586587 | 18.33° C | 86% | 1007.7 hPa | 0 mm | - | 0 W/m² | - |
| 1788586282 | 18.33° C | 86% | 1007.6 hPa | 0 mm | - | 0 W/m² | - |
| 1788585980 | 18.33° C | 87% | 1007.6 hPa | 0 mm | - | 0 W/m² | - |
| 1788585670 | 18.33° C | 86% | 1007.6 hPa | 0 mm | - | 0 W/m² | - |
| 1788585365 | 18.89° C | 86% | 1007.5 hPa | 0 mm | - | 0 W/m² | - |
| 1788585061 | 18.89° C | 86% | 1007.8 hPa | 0 mm | - | 0 W/m² | - |
| 1788584752 | 18.89° C | 84% | 1007.7 hPa | 0 mm | - | 0 W/m² | - |
| 1788584449 | 18.89° C | 84% | 1007.6 hPa | 0 mm | - | 0 W/m² | - |
| 1788584143 | 18.89° C | 86% | 1007.7 hPa | 0 mm | - | 0 W/m² | - |
| 1788583838 | 18.89° C | 83% | 1007.4 hPa | 0 mm | - | 0 W/m² | - |
| 1788583533 | 18.89° C | 83% | 1007.3 hPa | 0 mm | - | 0 W/m² | - |
| 1788583233 | 18.89° C | 83% | 1007.5 hPa | 0 mm | - | 0 W/m² | - |
| 1788582932 | 18.89° C | 83% | 1007.7 hPa | 0 mm | - | 0 W/m² | - |
| 1788582627 | 18.89° C | 85% | 1007.8 hPa | 0 mm | - | 0 W/m² | - |
| 1788582321 | 18.89° C | 85% | 1007.9 hPa | 0 mm | - | 0 W/m² | - |
* Rain latest hour (hover to see other rain measurements)
** Current wind speed in m/s (hover to see current wind gust speed)